Theta_e
321 319 320 323 333 337 337 338 337 338 337 333 333 338 347 348 353 362 355 352 348 351 355 349 343 341 343 345 346 347 347 345 339 335 336 337 336 334 334 334 337 343 343 341 329 320 324 324 326
318 319 321 328 336 340 338 337 339 336 331 332 339 344 351 355 355 357 355 352 350 353 355 352 340 340 341 344 346 347 346 345 342 338 341 339 338 335 333 336 337 338 335 329 321 319 324 327 328
316 319 326 332 336 341 338 338 338 332 330 337 341 348 350 355 354 351 350 351 351 354 354 354 338 337 340 342 345 346 346 345 344 344 345 341 338 335 334 337 334 331 330 329 320 325 329 333 331
318 322 324 330 336 337 340 337 333 332 330 331 341 348 352 351 350 351 350 350 351 352 353 352 336 335 338 340 343 345 345 345 345 346 344 341 337 334 335 335 332 332 332 326 324 327 331 334 334
318 323 330 332 333 335 335 333 331 331 330 331 341 347 353 354 355 352 351 350 349 350 351 350 334 332 336 338 338 340 344 344 344 343 341 335 333 334 335 334 333 335 330 325 323 323 327 331 333
320 324 330 333 333 331 331 331 331 329 329 330 340 347 353 355 357 352 351 350 348 350 351 351 335 332 334 336 336 335 335 335 334 332 331 331 333 334 332 332 335 331 324 323 320 320 322 325 328
319 324 330 332 331 330 331 328 330 327 327 333 339 346 354 355 357 353 353 351 349 351 351 352 346 338 334 335 335 334 333 331 328 327 327 327 329 330 333 334 334 329 323 322 320 319 319 320 322
317 320 328 327 327 330 326 325 323 324 326 327 339 345 350 356 358 356 354 352 350 350 350 350 346 345 345 344 335 334 333 331 329 328 329 332 334 334 334 334 330 326 323 321 320 319 319 319 318
315 319 325 326 326 328 324 325 323 323 324 327 336 340 345 356 356 355 354 352 349 348 349 348 346 346 344 344 344 336 333 332 331 332 332 334 339 340 342 337 338 327 325 322 321 320 320 319 319
319 320 322 323 324 325 323 321 322 323 325 329 334 347 351 354 354 353 353 351 349 348 348 348 348 347 346 344 346 344 344 341 340 340 342 338 338 340 339 340 333 330 328 327 323 322 322 321 329
327 325 321 319 321 326 328 322 322 323 325 326 327 342 351 353 352 351 350 349 348 348 348 348 351 350 348 346 346 345 345 345 344 344 344 341 341 342 340 339 340 340 338 337 337 337 336 333 332
329 329 321 318 318 321 322 323 322 323 324 323 323 322 347 353 352 350 349 349 349 348 348 349 352 353 351 347 347 348 347 347 348 348 349 347 348 346 345 343 342 343 341 340 339 336 336 336 335
330 329 329 326 324 327 324 324 323 322 321 322 322 321 324 347 352 351 349 348 349 349 349 349 351 354 354 352 348 349 349 348 348 349 350 349 348 347 348 347 347 346 345 345 345 344 343 342 341
328 329 330 327 328 326 323 320 320 322 321 321 322 322 323 324 337 339 343 343 345 348 350 350 351 354 355 354 352 351 351 349 350 350 350 351 349 349 349 349 348 348 348 347 348 348 348 348 346
322 325 325 324 324 322 322 319 318 319 321 322 322 322 322 323 323 327 329 334 337 340 346 350 352 354 355 355 354 354 352 351 350 350 351 352 351 350 350 347 347 347 347 348 348 348 347 346 344
322 318 315 315 318 321 319 323 323 321 321 321 322 322 322 322 322 322 322 324 329 335 339 347 346 349 355 355 354 353 352 352 350 350 350 351 350 350 350 348 348 349 350 349 348 347 347 346 345
315 315 315 315 315 315 320 320 319 320 320 320 321 322 322 322 323 323 322 322 324 329 335 340 345 346 349 355 355 354 353 353 351 350 350 350 350 349 350 349 350 352 350 350 349 348 347 347 346
317 314 314 315 317 316 316 317 319 320 320 321 322 322 322 322 323 323 324 324 323 324 328 334 340 346 349 352 354 353 353 352 351 350 350 350 350 349 351 351 352 353 351 350 349 349 348 347 346
317 316 317 317 317 317 318 318 319 320 320 321 321 322 323 324 323 321 322 322 323 324 326 329 336 343 350 350 351 352 353 353 351 349 349 350 351 352 352 352 352 353 351 350 349 349 348 347 345
317 317 317 317 317 319 318 318 319 320 320 321 322 323 326 327 327 328 327 325 325 326 327 327 333 341 350 347 349 349 351 352 351 348 348 351 351 351 352 351 350 351 350 350 350 349 347 344 343
318 318 318 318 318 318 318 319 320 319 321 321 324 326 327 328 329 331 331 330 328 326 328 332 331 339 348 347 349 352 352 352 351 349 352 353 352 352 352 352 351 348 346 340 344 347 346 344 340
319 318 318 318 318 318 319 318 321 320 320 321 326 327 328 329 331 332 332 331 330 329 327 326 335 341 344 348 347 349 349 350 349 351 353 351 348 347 346 343 340 340 337 337 338 340 341 342 338
318 317 317 318 320 320 320 319 321 320 320 323 326 327 328 329 330 331 333 332 332 332 331 331 335 341 343 346 347 348 349 348 349 348 347 342 340 337 334 335 335 334 332 333 335 334 336 334 335
318 318 320 320 320 322 320 320 320 321 320 327 326 326 326 327 327 328 329 330 332 334 337 338 338 340 342 344 346 349 349 347 344 342 340 336 334 334 333 331 332 331 329 330 330 331 332 332 331
319 320 321 321 321 320 321 321 320 326 326 326 326 325 325 325 325 325 326 327 328 331 333 335 337 337 337 337 337 339 341 339 338 336 332 330 328 328 329 331 331 329 329 325 324 325 326 326 327
320 321 319 321 321 321 321 320 326 326 325 325 326 326 326 326 326 325 324 323 323 323 324 325 326 327 328 328 328 329 331 328 328 330 327 326 325 325 326 331 330 329 326 326 326 323 324 322 323
321 322 322 322 322 322 320 326 326 326 326 325 324 323 323 323 323 324 325 323 322 322 324 324 324 324 323 324 325 326 327 327 326 330 330 325 326 325 326 328 329 328 327 325 325 324 322 324 323
323 321 322 322 325 326 321 323 323 329 328 325 323 323 322 322 322 322 323 324 323 322 322 321 321 320 319 320 320 320 321 321 323 325 325 326 327 328 328 327 327 328 327 326 326 323 322 323 323
323 322 322 325 325 327 326 324 325 327 327 326 324 322 322 322 322 321 321 320 320 320 319 318 317 317 317 316 316 316 316 316 316 318 319 321 323 324 324 324 325 325 326 326 326 326 323 322 323
323 324 324 328 326 325 325 328 326 326 327 326 324 321 321 321 321 319 319 318 317 316 316 315 315 315 314 313 313 314 314 315 315 316 316 316 316 317 318 320 321 321 322 323 325 325 324 323 323
Wind_Speed
9 6 4 6 7 7 11 5 1 3 1 4 8 5 7 6 10 4 8 10 18 22 22 25 26 24 21 17 19 24 26 25 24 24 22 20 18 16 18 18 17 13 11 9 7 7 8 9 10
7 5 6 4 8 10 10 5 10 2 4 7 3 6 6 7 6 8 13 12 20 21 21 21 26 25 22 19 20 24 25 25 23 23 21 19 16 16 18 17 15 12 10 7 7 8 9 9 9
6 6 6 5 11 12 8 10 5 0 2 2 2 1 3 5 4 12 12 19 22 21 20 20 26 25 23 20 21 23 25 24 23 22 19 16 15 15 16 15 13 10 8 6 6 7 7 7 6
6 7 4 9 15 15 7 8 2 2 4 1 2 4 6 5 7 7 17 22 21 20 19 20 25 24 23 22 21 22 23 23 22 20 17 15 15 15 15 13 10 8 6 5 6 6 7 6 5
9 4 9 14 18 5 8 4 4 4 3 3 5 6 5 6 9 15 19 22 22 20 19 21 24 23 23 23 22 21 22 21 20 18 16 15 15 14 14 12 9 6 5 5 5 6 7 6 6
7 7 10 15 16 11 7 6 7 7 4 3 7 5 8 9 11 16 16 19 20 19 18 19 23 22 22 22 23 22 22 20 19 17 16 15 15 14 13 11 8 6 6 5 5 5 6 6 6
11 10 16 14 11 11 9 3 8 5 4 4 6 9 7 10 11 15 15 17 19 18 18 18 19 21 22 21 22 21 20 19 18 18 18 17 15 14 12 10 8 7 7 6 5 5 5 5 6
5 8 16 9 12 12 5 6 2 5 2 3 3 7 12 12 14 15 15 17 19 18 17 17 18 18 17 18 21 20 19 17 17 17 17 15 14 13 12 11 9 9 8 7 7 6 6 7 8
1 6 11 13 11 7 5 5 0 5 7 2 2 4 6 14 16 16 15 17 18 17 17 17 18 18 18 17 18 20 19 18 17 16 16 15 11 11 11 11 13 11 10 9 8 8 7 8 8
6 8 9 3 7 6 2 6 8 7 4 4 5 4 8 14 16 15 15 17 18 18 18 17 17 18 18 17 16 18 17 16 16 15 15 14 12 11 12 12 13 11 10 9 9 9 9 9 8
19 15 7 9 13 18 14 6 5 10 9 4 5 3 6 11 14 14 14 14 16 16 16 17 18 18 18 17 17 18 18 18 17 17 17 16 14 13 13 11 10 10 11 9 10 10 8 10 9
14 21 10 10 16 18 13 6 12 11 15 4 5 5 4 10 11 13 12 13 14 15 17 18 19 19 19 18 19 18 19 19 18 19 18 16 15 14 13 13 11 11 10 10 10 10 10 11 11
19 15 7 8 15 19 22 21 19 17 15 12 10 5 7 8 10 12 11 10 11 15 17 19 20 22 22 23 21 20 19 19 18 18 19 19 17 16 14 14 13 11 11 11 11 11 12 11 12
17 14 8 7 16 20 26 19 18 17 11 14 11 9 8 8 10 11 11 12 14 15 17 18 21 23 23 23 22 20 19 19 19 18 18 19 18 16 15 15 15 15 14 13 13 12 12 12 13
11 14 9 13 15 13 25 27 24 20 17 16 14 10 8 9 9 10 11 12 12 14 15 18 21 22 24 24 22 22 20 20 19 18 18 18 20 17 16 15 15 15 14 14 14 13 14 15 15
19 15 16 19 16 18 16 25 21 18 14 15 14 10 8 8 10 12 12 12 13 15 16 17 18 20 24 24 23 22 21 20 19 17 16 18 18 17 15 16 15 12 12 12 12 13 14 15 15
16 14 20 13 23 21 22 25 23 12 12 13 10 11 9 8 10 13 18 18 17 18 17 17 18 20 21 21 21 21 20 20 18 17 17 17 17 16 15 12 11 12 12 11 13 13 14 15 15
17 18 17 18 20 24 19 23 18 11 11 11 12 10 6 6 11 15 14 16 17 18 17 19 19 18 18 18 19 20 21 21 19 18 17 16 16 16 15 12 12 12 12 12 13 12 13 15 15
14 18 12 14 11 21 20 20 17 11 10 9 9 4 3 5 5 5 8 10 11 13 16 18 19 17 17 17 19 20 22 21 20 19 16 15 15 14 14 14 12 13 13 13 12 13 14 15 15
11 14 16 13 12 13 17 15 16 9 11 6 2 2 2 4 5 5 5 5 4 8 10 13 16 15 17 16 16 16 17 18 18 17 16 15 14 13 13 13 12 13 13 12 12 13 13 15 13
14 14 12 8 8 11 7 14 14 12 8 7 5 3 4 6 7 7 8 7 5 5 4 7 11 14 15 16 14 13 11 13 15 16 14 13 13 13 13 12 11 9 10 11 10 10 11 14 15
16 12 9 10 8 11 13 10 14 15 12 8 4 4 5 7 8 9 9 9 7 5 4 3 5 8 12 14 15 15 14 14 14 14 14 13 12 12 11 11 10 9 9 9 10 11 11 11 15
8 7 11 11 11 10 11 8 10 9 11 12 3 6 8 8 9 10 11 12 12 11 8 5 1 3 7 10 14 15 16 12 10 10 13 13 12 11 10 9 9 8 8 9 9 9 10 13 16
4 9 6 6 8 11 16 11 12 14 12 8 5 7 7 7 9 11 14 14 15 15 14 11 8 5 3 6 9 11 11 11 12 12 13 12 11 11 11 11 11 10 10 11 11 11 12 13 15
13 12 7 8 9 9 7 7 7 9 6 4 8 8 8 8 9 10 11 14 16 18 17 16 15 14 11 10 8 7 7 8 11 12 8 8 9 11 11 13 13 12 12 12 11 11 11 12 15
16 15 7 9 8 7 8 7 6 7 8 8 8 7 6 6 7 8 9 11 14 16 17 16 14 13 11 10 8 7 4 3 2 4 2 7 9 10 10 14 15 16 16 16 14 14 14 13 14
12 11 4 6 1 7 5 7 6 7 8 8 7 6 5 4 4 4 5 6 7 9 9 9 9 9 9 8 6 5 5 5 4 4 7 10 12 14 14 16 18 19 19 19 18 19 18 17 16
9 10 8 9 8 12 7 7 6 15 13 11 9 5 3 2 1 2 3 4 4 4 6 8 8 8 8 7 8 7 6 6 6 7 9 11 13 15 16 17 18 20 21 22 22 23 23 23 22
8 10 8 6 4 6 8 1 8 9 13 12 7 2 2 5 5 4 4 2 4 4 6 7 7 7 7 7 7 7 7 7 8 8 10 11 12 14 18 20 21 23 25 26 27 27 29 28 26
5 8 8 7 9 7 9 9 5 3 9 6 5 1 6 6 5 5 4 4 4 5 5 5 7 8 8 9 10 10 11 11 12 12 13 14 16 16 18 20 22 25 28 30 31 31 32 33 33
Wind_Direction
311 296 270 241 244 237 236 190 157 220 197 357 314 263 353 4 357 37 130 140 149 154 158 163 171 173 173 173 171 170 170 170 171 170 168 166 161 157 160 160 162 163 160 159 155 153 149 144 141
294 267 226 260 252 217 209 140 193 186 341 330 266 196 235 76 53 100 137 149 151 153 156 162 171 175 175 173 172 174 172 174 174 172 172 171 169 167 166 165 166 168 167 164 158 155 153 147 142
275 244 245 232 240 246 239 177 140 236 353 3 226 282 27 60 71 133 121 148 150 154 157 166 171 175 178 176 174 176 175 176 177 177 177 177 176 174 170 169 169 168 165 165 159 154 152 148 153
241 196 216 238 237 235 310 138 169 227 155 307 215 178 114 75 123 124 143 150 154 156 159 174 174 175 178 180 177 180 179 180 180 182 184 183 182 178 174 173 172 172 171 165 158 162 163 168 178
243 240 223 225 237 232 239 259 285 245 226 231 202 135 99 100 109 136 147 156 159 158 162 167 174 178 180 182 180 179 181 183 185 187 190 188 184 180 178 177 178 178 179 176 175 182 188 193 199
227 258 213 224 221 229 240 249 267 247 238 186 206 187 119 124 133 147 151 159 162 160 163 167 175 180 183 184 183 182 182 184 189 192 191 186 182 181 181 183 187 192 197 196 198 201 205 214 226
261 224 224 230 243 222 232 239 231 278 237 155 329 201 103 156 138 150 154 161 163 162 164 168 172 180 186 188 187 186 187 189 188 186 184 183 183 184 187 193 201 209 211 213 215 219 222 230 244
285 272 222 213 219 225 150 230 260 277 93 309 245 214 167 130 148 152 158 162 164 166 170 170 173 179 182 190 193 194 193 192 191 188 187 187 190 195 200 206 212 216 219 226 229 234 237 237 245
272 245 220 205 215 212 162 241 295 310 268 277 41 358 59 143 150 155 156 162 167 171 175 177 178 183 186 189 196 197 199 198 196 196 199 198 197 211 216 212 222 222 221 226 232 238 244 254 262
181 244 228 301 313 267 135 280 323 295 255 158 168 93 121 156 161 163 167 169 174 177 179 183 186 188 190 191 194 194 199 199 197 199 202 197 206 210 212 219 231 228 230 234 239 242 250 257 256
206 233 260 288 294 286 272 270 297 293 248 72 52 86 165 173 176 177 179 173 180 182 184 188 191 194 197 198 198 199 203 203 204 204 203 202 207 214 215 219 227 226 241 235 246 244 245 245 249
217 231 245 281 296 309 269 288 277 281 286 305 319 346 190 195 189 191 187 176 182 191 194 194 196 198 202 205 206 206 207 208 209 210 206 203 209 215 216 219 220 221 225 229 235 241 243 243 252
225 202 232 309 286 288 285 280 278 278 277 280 284 278 226 207 204 208 206 205 198 202 203 202 202 204 205 206 211 213 214 213 215 213 213 210 216 220 223 226 227 228 230 235 238 244 247 252 259
199 203 215 313 287 289 286 279 274 263 254 259 245 256 229 215 212 193 204 213 214 217 215 210 209 210 210 212 213 214 214 216 218 219 219 219 220 224 226 227 229 231 231 236 244 251 256 256 257
154 198 202 226 271 269 293 275 266 258 261 261 236 234 243 229 213 221 216 214 223 223 220 215 215 215 216 216 217 217 219 218 218 221 220 219 221 225 226 230 234 237 234 237 243 246 255 262 259
213 231 208 212 209 261 263 272 270 241 246 237 232 221 215 227 238 241 244 244 237 235 222 221 219 219 220 220 219 221 222 221 221 220 221 220 222 224 221 221 231 236 242 238 244 244 252 254 257
200 214 225 196 192 216 222 251 265 236 231 241 231 224 225 240 226 238 241 239 239 232 229 225 221 223 224 225 224 223 221 220 222 220 220 222 223 224 221 226 229 233 241 241 239 244 249 259 260
189 216 195 212 185 203 220 245 252 218 235 225 228 240 250 271 270 267 240 243 242 239 233 226 221 222 219 219 220 222 221 220 218 220 220 223 227 229 228 234 234 235 238 241 242 246 249 254 266
198 207 191 209 175 195 219 216 235 217 220 213 212 216 298 336 335 293 248 250 256 246 238 230 223 220 212 214 213 216 217 217 215 217 219 221 221 224 228 233 235 237 241 245 242 242 246 255 255
205 210 198 191 183 219 200 226 237 207 217 229 187 170 34 342 4 10 352 355 327 293 274 237 226 219 216 221 223 225 227 218 214 211 212 216 217 222 225 231 237 244 252 251 253 251 257 254 261
204 214 182 201 190 223 249 238 220 227 211 165 127 82 47 11 1 9 13 9 340 294 272 233 222 219 221 221 222 221 225 206 205 206 206 211 215 219 225 229 227 234 240 257 254 253 244 266 267
209 209 247 221 206 232 197 249 200 212 205 185 139 63 42 30 22 30 28 23 8 347 310 270 228 219 220 217 220 219 216 216 211 202 195 195 193 189 192 201 210 216 236 249 253 252 253 252 268
232 189 214 226 222 245 188 246 172 186 203 162 111 69 51 44 41 37 37 33 30 27 27 24 318 214 215 213 218 218 228 214 199 182 176 181 176 178 188 201 209 210 223 230 245 252 254 264 270
166 183 170 211 221 224 225 213 206 182 219 130 97 75 74 71 63 52 49 47 42 43 51 56 65 77 150 198 207 217 219 210 188 175 174 175 181 190 197 205 209 218 230 232 237 246 253 261 271
199 193 189 208 207 237 119 209 273 104 123 137 123 107 91 81 74 65 58 57 53 54 58 64 69 73 81 93 101 120 146 162 162 154 177 183 203 208 213 213 221 229 231 233 236 240 251 255 262
199 202 235 227 214 199 143 239 126 115 130 130 120 112 101 74 67 62 63 66 70 67 64 69 73 74 72 71 72 78 88 112 127 192 234 226 239 243 245 228 228 232 232 232 235 244 247 253 253
167 223 327 284 284 281 225 115 131 160 159 157 133 107 79 66 63 48 64 63 69 65 53 51 58 60 50 48 44 37 13 346 319 280 258 253 254 257 249 242 239 239 240 239 239 249 252 250 249
269 167 195 218 258 250 234 244 279 177 176 165 157 125 85 40 34 46 37 46 38 62 60 47 48 52 45 37 27 15 8 356 328 297 282 276 268 262 259 247 246 248 249 249 246 251 251 248 251
175 208 232 301 288 251 264 207 36 176 180 183 159 127 1 336 333 347 2 50 83 61 43 34 26 25 19 12 1 345 336 326 313 303 293 286 277 268 265 262 258 254 253 251 250 250 254 257 245
315 292 212 222 237 252 283 284 66 100 159 185 195 284 0 339 356 3 31 48 41 35 21 23 3 350 348 341 330 322 316 311 300 293 290 285 280 275 269 267 263 260 258 255 253 252 253 252 249